NILESAT 301

Last updated on Wed Oct 22 2025 00:02:50 GMT+0000 (Coordinated Universal Time)

1 52817U 22061A 25294.33522889 -.00000051 00000+0 00000+0 0 9991 2 52817 0.0675 32.9026 0002087 199.9394 270.8981 1.00272901 12343
UTC large
Height (km)
Speed (km/s)
/
Latitude / Longitude
Inclination (degrees)
Orbital Period (minutes)
Azimuth
Elevation
Range (km)
Doppler Factor

Next 0 passes for location: London (51.5072 / 0.1276)

Sorry there are no passes over London.